Time,TemperatureF,DewpointF,PressureIn,WindDirection,WindDirectionDegrees,WindSpeedMPH,WindSpeedGustMPH,Humidity,HourlyPrecipIn,Conditions,Clouds,dailyrainin,SoftwareType,DateUTC
2013-10-27 00:01:00,45.0,35.4,30.01,SSE,154,0.0,0.0,69,0.00,,,0.01,Wunderground v.1.15,2013-10-27 04:01:00,
2013-10-27 00:03:00,45.0,35.1,30.01,SE,141,0.0,0.0,68,0.00,,,0.01,Wunderground v.1.15,2013-10-27 04:03:00,
2013-10-27 00:04:00,45.1,34.8,30.01,ESE,121,0.0,2.0,67,0.00,,,0.01,Wunderground v.1.15,2013-10-27 04:04:00,
2013-10-27 00:05:00,45.2,34.9,30.01,ESE,121,0.0,2.0,67,0.00,,,0.01,Wunderground v.1.15,2013-10-27 04:05:00,
2013-10-27 00:06:00,45.2,35.3,30.01,ESE,121,0.0,2.0,68,0.00,,,0.01,Wunderground v.1.15,2013-10-27 04:06:00,
2013-10-27 00:07:00,45.3,36.1,30.01,ESE,121,0.0,2.0,70,0.00,,,0.01,Wunderground v.1.15,2013-10-27 04:07:00,
2013-10-27 00:13:00,45.4,35.8,30.01,ESE,121,0.0,0.0,69,0.00,,,0.00,Wunderground v.1.15,2013-10-27 04:13:00,
2013-10-27 00:18:00,45.5,35.2,30.01,SE,135,0.0,2.0,67,0.00,,,0.00,Wunderground v.1.15,2013-10-27 04:18:00,
2013-10-27 00:23:00,45.6,36.0,30.01,SE,135,0.0,0.0,69,0.00,,,0.00,Wunderground v.1.15,2013-10-27 04:23:00,
2013-10-27 00:29:00,45.6,36.7,30.01,SE,135,0.0,1.0,71,0.00,,,0.00,Wunderground v.1.15,2013-10-27 04:29:00,
2013-10-27 00:34:00,45.4,36.5,30.01,SE,135,0.0,1.0,71,0.00,,,0.00,Wunderground v.1.15,2013-10-27 04:34:00,
2013-10-27 00:40:00,45.1,35.5,30.01,SSE,150,1.0,1.0,69,0.00,,,0.00,Wunderground v.1.15,2013-10-27 04:40:00,
2013-10-27 00:45:00,45.0,35.8,30.01,East,97,0.0,3.0,70,0.00,,,0.00,Wunderground v.1.15,2013-10-27 04:45:00,
2013-10-27 00:51:00,45.0,35.8,30.01,SSW,194,1.0,1.0,70,0.00,,,0.00,Wunderground v.1.15,2013-10-27 04:51:00,
2013-10-27 00:56:00,45.0,35.8,30.01,ESE,123,1.0,1.0,70,0.00,,,0.00,Wunderground v.1.15,2013-10-27 04:56:00,
2013-10-27 01:01:00,45.0,35.8,30.01,East,97,0.0,0.0,70,0.00,,,0.00,Wunderground v.1.15,2013-10-27 05:01:00,
2013-10-27 01:07:00,45.0,36.2,30.01,SE,138,0.0,2.0,71,0.00,,,0.00,Wunderground v.1.15,2013-10-27 05:07:00,
2013-10-27 01:12:00,44.9,36.4,30.02,ESE,123,0.0,1.0,72,0.00,,,0.00,Wunderground v.1.15,2013-10-27 05:12:00,
2013-10-27 01:17:00,44.6,36.1,30.01,SSW,211,0.0,6.0,72,0.00,,,0.00,Wunderground v.1.15,2013-10-27 05:17:00,
2013-10-27 01:22:00,44.1,36.0,30.01,SSW,211,0.0,0.0,73,0.00,,,0.00,Wunderground v.1.15,2013-10-27 05:22:00,
2013-10-27 01:28:00,43.5,35.8,30.01,South,169,0.0,1.0,74,0.00,,,0.00,Wunderground v.1.15,2013-10-27 05:28:00,
2013-10-27 01:33:00,43.1,35.7,30.01,South,169,0.0,1.0,75,0.00,,,0.00,Wunderground v.1.15,2013-10-27 05:33:00,
2013-10-27 01:39:00,42.6,35.9,30.01,South,169,0.0,1.0,77,0.00,,,0.00,Wunderground v.1.15,2013-10-27 05:39:00,
2013-10-27 01:45:00,41.9,35.5,30.01,South,169,0.0,0.0,78,0.00,,,0.00,Wunderground v.1.15,2013-10-27 05:45:00,
2013-10-27 01:51:00,41.4,35.4,30.01,South,169,0.0,0.0,79,0.00,,,0.00,Wunderground v.1.15,2013-10-27 05:51:00,
2013-10-27 01:57:00,40.9,35.2,30.02,South,169,0.0,0.0,80,0.00,,,0.00,Wunderground v.1.15,2013-10-27 05:57:00,
2013-10-27 02:02:00,40.5,35.4,30.02,South,169,0.0,0.0,82,0.00,,,0.00,Wunderground v.1.15,2013-10-27 06:02:00,
2013-10-27 02:08:00,40.2,35.1,30.02,South,169,0.0,0.0,82,0.00,,,0.00,Wunderground v.1.15,2013-10-27 06:08:00,
2013-10-27 02:13:00,39.9,35.2,30.02,South,169,0.0,0.0,83,0.00,,,0.00,Wunderground v.1.15,2013-10-27 06:13:00,
2013-10-27 02:18:00,39.7,35.0,30.02,South,169,0.0,0.0,83,0.00,,,0.00,Wunderground v.1.15,2013-10-27 06:18:00,
2013-10-27 02:23:00,39.5,34.8,30.02,South,169,0.0,0.0,83,0.00,,,0.00,Wunderground v.1.15,2013-10-27 06:23:00,
2013-10-27 02:29:00,39.3,34.9,30.02,South,169,0.0,0.0,84,0.00,,,0.00,Wunderground v.1.15,2013-10-27 06:29:00,
2013-10-27 02:34:00,39.1,35.0,30.02,South,169,0.0,0.0,85,0.00,,,0.00,Wunderground v.1.15,2013-10-27 06:34:00,
2013-10-27 02:39:00,38.9,34.8,30.02,South,169,0.0,0.0,85,0.00,,,0.00,Wunderground v.1.15,2013-10-27 06:39:00,
2013-10-27 02:45:00,38.7,34.6,30.01,South,169,0.0,0.0,85,0.00,,,0.00,Wunderground v.1.15,2013-10-27 06:45:00,
2013-10-27 02:50:00,38.5,34.7,30.01,South,169,0.0,0.0,86,0.00,,,0.00,Wunderground v.1.15,2013-10-27 06:50:00,
2013-10-27 02:55:00,38.4,34.6,30.01,South,169,0.0,0.0,86,0.00,,,0.00,Wunderground v.1.15,2013-10-27 06:55:00,
2013-10-27 03:00:00,38.2,34.4,30.01,South,169,0.0,0.0,86,0.00,,,0.00,Wunderground v.1.15,2013-10-27 07:00:00,
2013-10-27 03:06:00,38.1,34.3,30.02,South,169,0.0,0.0,86,0.00,,,0.00,Wunderground v.1.15,2013-10-27 07:06:00,
2013-10-27 03:11:00,38.0,34.5,30.02,South,169,0.0,0.0,87,0.00,,,0.00,Wunderground v.1.15,2013-10-27 07:11:00,
2013-10-27 03:17:00,37.9,34.4,30.02,South,169,0.0,0.0,87,0.00,,,0.00,Wunderground v.1.15,2013-10-27 07:17:00,
2013-10-27 03:22:00,37.8,34.3,30.02,South,169,0.0,0.0,87,0.00,,,0.00,Wunderground v.1.15,2013-10-27 07:22:00,
2013-10-27 03:27:00,37.8,34.6,30.02,South,169,0.0,0.0,88,0.00,,,0.00,Wunderground v.1.15,2013-10-27 07:27:00,
2013-10-27 03:32:00,37.7,34.5,30.02,South,169,0.0,0.0,88,0.00,,,0.00,Wunderground v.1.15,2013-10-27 07:32:00,
2013-10-27 03:38:00,37.6,34.7,30.02,South,169,0.0,0.0,89,0.00,,,0.00,Wunderground v.1.15,2013-10-27 07:38:00,
2013-10-27 03:43:00,37.5,34.6,30.02,South,169,0.0,0.0,89,0.00,,,0.00,Wunderground v.1.15,2013-10-27 07:43:00,
2013-10-27 03:48:00,37.4,34.5,30.02,South,169,0.0,0.0,89,0.00,,,0.00,Wunderground v.1.15,2013-10-27 07:48:00,
2013-10-27 03:53:00,37.3,34.4,30.02,South,169,0.0,0.0,89,0.00,,,0.00,Wunderground v.1.15,2013-10-27 07:53:00,
2013-10-27 03:58:00,37.1,34.2,30.02,South,169,0.0,0.0,89,0.00,,,0.00,Wunderground v.1.15,2013-10-27 07:58:00,
2013-10-27 04:04:00,37.0,34.3,30.02,South,169,0.0,0.0,90,0.00,,,0.00,Wunderground v.1.15,2013-10-27 08:04:00,
2013-10-27 04:10:00,36.8,33.9,30.02,South,169,0.0,0.0,89,0.00,,,0.00,Wunderground v.1.15,2013-10-27 08:10:00,
2013-10-27 04:15:00,36.6,33.9,30.02,South,169,0.0,0.0,90,0.00,,,0.00,Wunderground v.1.15,2013-10-27 08:15:00,
2013-10-27 04:20:00,36.4,33.7,30.01,South,169,0.0,0.0,90,0.00,,,0.00,Wunderground v.1.15,2013-10-27 08:20:00,
2013-10-27 04:25:00,36.2,33.5,30.02,South,169,0.0,0.0,90,0.00,,,0.00,Wunderground v.1.15,2013-10-27 08:25:00,
2013-10-27 04:30:00,36.0,33.4,30.02,South,169,0.0,0.0,90,0.00,,,0.00,Wunderground v.1.15,2013-10-27 08:30:00,
2013-10-27 04:35:00,35.8,33.2,30.02,South,169,0.0,0.0,90,0.00,,,0.00,Wunderground v.1.15,2013-10-27 08:35:00,
2013-10-27 04:40:00,35.7,33.3,30.02,South,169,0.0,0.0,91,0.00,,,0.00,Wunderground v.1.15,2013-10-27 08:40:00,
2013-10-27 04:46:00,35.5,33.1,30.02,South,169,0.0,0.0,91,0.00,,,0.00,Wunderground v.1.15,2013-10-27 08:46:00,
2013-10-27 04:52:00,35.3,32.9,30.02,South,169,0.0,0.0,91,0.00,,,0.00,Wunderground v.1.15,2013-10-27 08:52:00,
2013-10-27 04:57:00,35.1,32.7,30.02,South,169,0.0,0.0,91,0.00,,,0.00,Wunderground v.1.15,2013-10-27 08:57:00,
2013-10-27 05:02:00,34.9,32.5,30.02,South,169,0.0,0.0,91,0.00,,,0.00,Wunderground v.1.15,2013-10-27 09:02:00,
2013-10-27 05:08:00,34.7,32.3,30.02,South,169,0.0,0.0,91,0.00,,,0.00,Wunderground v.1.15,2013-10-27 09:08:00,
2013-10-27 05:13:00,34.5,32.1,30.02,South,169,0.0,0.0,91,0.00,,,0.00,Wunderground v.1.15,2013-10-27 09:13:00,
2013-10-27 05:18:00,34.3,31.9,30.02,South,169,0.0,0.0,91,0.00,,,0.00,Wunderground v.1.15,2013-10-27 09:18:00,
2013-10-27 05:23:00,34.2,31.8,30.03,South,169,0.0,0.0,91,0.00,,,0.00,Wunderground v.1.15,2013-10-27 09:23:00,
2013-10-27 05:28:00,34.0,31.6,30.02,South,169,0.0,0.0,91,0.00,,,0.00,Wunderground v.1.15,2013-10-27 09:28:00,
2013-10-27 05:33:00,33.8,31.7,30.03,South,169,0.0,0.0,92,0.00,,,0.00,Wunderground v.1.15,2013-10-27 09:33:00,
2013-10-27 05:39:00,33.7,31.6,30.03,South,169,0.0,0.0,92,0.00,,,0.00,Wunderground v.1.15,2013-10-27 09:39:00,
2013-10-27 05:44:00,33.5,31.4,30.03,South,169,0.0,0.0,92,0.00,,,0.00,Wunderground v.1.15,2013-10-27 09:44:00,
2013-10-27 05:49:00,33.4,31.3,30.03,South,169,0.0,0.0,92,0.00,,,0.00,Wunderground v.1.15,2013-10-27 09:49:00,
2013-10-27 05:54:00,33.2,31.1,30.03,South,169,0.0,0.0,92,0.00,,,0.00,Wunderground v.1.15,2013-10-27 09:54:00,
2013-10-27 05:59:00,33.1,31.0,30.03,South,169,0.0,0.0,92,0.00,,,0.00,Wunderground v.1.15,2013-10-27 09:59:00,
2013-10-27 06:04:00,32.9,30.8,30.03,South,169,0.0,0.0,92,0.00,,,0.00,Wunderground v.1.15,2013-10-27 10:04:00,
2013-10-27 06:10:00,32.7,30.6,30.03,South,169,0.0,0.0,92,0.00,,,0.00,Wunderground v.1.15,2013-10-27 10:10:00,
2013-10-27 06:15:00,32.6,30.5,30.03,South,169,0.0,0.0,92,0.00,,,0.00,Wunderground v.1.15,2013-10-27 10:15:00,
2013-10-27 06:20:00,32.5,30.7,30.03,South,169,0.0,0.0,93,0.00,,,0.00,Wunderground v.1.15,2013-10-27 10:20:00,
2013-10-27 06:26:00,32.4,30.3,30.03,South,169,0.0,0.0,92,0.00,,,0.00,Wunderground v.1.15,2013-10-27 10:26:00,
2013-10-27 06:31:00,32.3,30.5,30.03,South,169,0.0,0.0,93,0.00,,,0.00,Wunderground v.1.15,2013-10-27 10:31:00,
2013-10-27 06:37:00,32.3,30.5,30.03,South,169,0.0,0.0,93,0.00,,,0.00,Wunderground v.1.15,2013-10-27 10:37:00,
2013-10-27 06:42:00,32.1,30.3,30.04,South,169,0.0,0.0,93,0.00,,,0.00,Wunderground v.1.15,2013-10-27 10:42:00,
2013-10-27 06:48:00,32.0,30.2,30.04,South,169,0.0,0.0,93,0.00,,,0.00,Wunderground v.1.15,2013-10-27 10:48:00,
2013-10-27 06:54:00,32.0,30.2,30.04,South,169,0.0,0.0,93,0.00,,,0.00,Wunderground v.1.15,2013-10-27 10:54:00,
2013-10-27 07:00:00,31.9,30.1,30.05,South,169,0.0,0.0,93,0.00,,,0.00,Wunderground v.1.15,2013-10-27 11:00:00,
2013-10-27 07:06:00,31.8,30.0,30.05,South,169,0.0,0.0,93,0.00,,,0.00,Wunderground v.1.15,2013-10-27 11:06:00,
2013-10-27 07:11:00,31.7,29.9,30.05,South,169,0.0,0.0,93,0.00,,,0.00,Wunderground v.1.15,2013-10-27 11:11:00,
2013-10-27 07:17:00,31.6,29.8,30.05,South,169,0.0,0.0,93,0.00,,,0.00,Wunderground v.1.15,2013-10-27 11:17:00,
2013-10-27 07:22:00,31.5,29.7,30.05,South,169,0.0,0.0,93,0.00,,,0.00,Wunderground v.1.15,2013-10-27 11:22:00,
2013-10-27 07:27:00,31.5,30.0,30.05,South,169,0.0,0.0,94,0.00,,,0.00,Wunderground v.1.15,2013-10-27 11:27:00,
2013-10-27 07:33:00,31.4,29.9,30.05,South,169,0.0,0.0,94,0.00,,,0.00,Wunderground v.1.15,2013-10-27 11:33:00,
2013-10-27 07:38:00,31.3,29.8,30.05,South,169,0.0,0.0,94,0.00,,,0.00,Wunderground v.1.15,2013-10-27 11:38:00,
2013-10-27 07:44:00,31.2,29.7,30.06,South,169,0.0,0.0,94,0.00,,,0.00,Wunderground v.1.15,2013-10-27 11:44:00,
2013-10-27 07:49:00,31.1,29.3,30.06,South,169,0.0,0.0,93,0.00,,,0.00,Wunderground v.1.15,2013-10-27 11:49:00,
2013-10-27 07:55:00,31.1,29.6,30.06,South,169,0.0,0.0,94,0.00,,,0.00,Wunderground v.1.15,2013-10-27 11:55:00,
2013-10-27 08:00:00,31.2,29.7,30.06,South,169,0.0,0.0,94,0.00,,,0.00,Wunderground v.1.15,2013-10-27 12:00:00,
2013-10-27 08:06:00,31.2,29.7,30.07,South,169,0.0,0.0,94,0.00,,,0.00,Wunderground v.1.15,2013-10-27 12:06:00,
2013-10-27 08:11:00,31.2,29.7,30.07,South,169,0.0,0.0,94,0.00,,,0.00,Wunderground v.1.15,2013-10-27 12:11:00,
2013-10-27 08:16:00,31.3,29.8,30.07,South,169,0.0,0.0,94,0.00,,,0.00,Wunderground v.1.15,2013-10-27 12:16:00,
2013-10-27 08:22:00,31.6,30.3,30.08,South,169,0.0,0.0,95,0.00,,,0.00,Wunderground v.1.15,2013-10-27 12:22:00,
2013-10-27 08:28:00,32.4,31.1,30.08,South,169,0.0,0.0,95,0.00,,,0.00,Wunderground v.1.15,2013-10-27 12:28:00,
2013-10-27 08:34:00,33.5,32.2,30.09,South,169,0.0,0.0,95,0.00,,,0.00,Wunderground v.1.15,2013-10-27 12:34:00,
2013-10-27 08:38:00,34.2,32.9,30.09,South,169,0.0,0.0,95,0.00,,,0.00,Wunderground v.1.15,2013-10-27 12:38:00,
2013-10-27 08:43:00,35.0,34.0,30.09,South,169,0.0,0.0,96,0.00,,,0.00,Wunderground v.1.15,2013-10-27 12:43:00,
2013-10-27 08:49:00,36.0,35.0,30.09,South,169,0.0,0.0,96,0.00,,,0.00,Wunderground v.1.15,2013-10-27 12:49:00,
2013-10-27 08:55:00,36.7,35.7,30.09,South,169,0.0,0.0,96,0.00,,,0.00,Wunderground v.1.15,2013-10-27 12:55:00,
2013-10-27 09:00:00,37.3,36.3,30.09,South,169,0.0,0.0,96,0.00,,,0.00,Wunderground v.1.15,2013-10-27 13:00:00,
2013-10-27 09:06:00,37.9,36.3,30.09,South,169,0.0,1.0,94,0.00,,,0.00,Wunderground v.1.15,2013-10-27 13:06:00,
2013-10-27 09:11:00,38.8,36.9,30.09,SSE,167,0.0,0.0,93,0.00,,,0.00,Wunderground v.1.15,2013-10-27 13:11:00,
2013-10-27 09:17:00,39.6,37.5,30.09,SSE,167,0.0,1.0,92,0.00,,,0.00,Wunderground v.1.15,2013-10-27 13:17:00,
2013-10-27 09:22:00,40.4,37.1,30.10,SSE,167,0.0,1.0,88,0.00,,,0.00,Wunderground v.1.15,2013-10-27 13:22:00,
2013-10-27 09:28:00,41.2,37.3,30.10,SSE,161,0.0,2.0,86,0.00,,,0.00,Wunderground v.1.15,2013-10-27 13:28:00,
2013-10-27 09:34:00,42.1,37.9,30.10,SE,128,1.0,2.0,85,0.00,,,0.00,Wunderground v.1.15,2013-10-27 13:34:00,
2013-10-27 09:40:00,43.1,38.3,30.10,SE,129,1.0,1.0,83,0.00,,,0.00,Wunderground v.1.15,2013-10-27 13:40:00,
2013-10-27 09:45:00,43.7,38.3,30.10,ESE,120,1.0,3.0,81,0.00,,,0.00,Wunderground v.1.15,2013-10-27 13:45:00,
2013-10-27 09:51:00,44.2,38.1,30.10,ENE,67,1.0,1.0,79,0.00,,,0.00,Wunderground v.1.15,2013-10-27 13:51:00,
2013-10-27 09:56:00,44.6,37.8,30.11,SE,134,1.0,2.0,77,0.00,,,0.00,Wunderground v.1.15,2013-10-27 13:56:00,
2013-10-27 10:02:00,44.8,37.7,30.11,SE,127,1.0,1.0,76,0.00,,,0.00,Wunderground v.1.15,2013-10-27 14:02:00,
2013-10-27 10:08:00,45.1,37.3,30.11,East,87,0.0,4.0,74,0.00,,,0.00,Wunderground v.1.15,2013-10-27 14:08:00,
2013-10-27 10:13:00,45.4,37.2,30.10,ESE,122,1.0,2.0,73,0.00,,,0.00,Wunderground v.1.15,2013-10-27 14:13:00,
2013-10-27 10:19:00,45.6,37.1,30.11,ESE,123,0.0,2.0,72,0.00,,,0.00,Wunderground v.1.15,2013-10-27 14:19:00,
2013-10-27 10:25:00,46.0,38.2,30.11,ESE,113,0.0,3.0,74,0.00,,,0.00,Wunderground v.1.15,2013-10-27 14:25:00,
2013-10-27 10:30:00,46.3,37.0,30.11,SE,141,1.0,2.0,70,0.00,,,0.00,Wunderground v.1.15,2013-10-27 14:30:00,
2013-10-27 10:35:00,46.5,37.2,30.11,SE,132,1.0,2.0,70,0.00,,,0.00,Wunderground v.1.15,2013-10-27 14:35:00,
2013-10-27 10:41:00,47.2,37.2,30.11,SE,126,1.0,2.0,68,0.00,,,0.00,Wunderground v.1.15,2013-10-27 14:41:00,
2013-10-27 10:47:00,47.7,37.7,30.12,ESE,113,1.0,4.0,68,0.00,,,0.00,Wunderground v.1.15,2013-10-27 14:47:00,
2013-10-27 10:53:00,47.9,35.9,30.11,SSE,160,2.0,4.0,63,0.00,,,0.00,Wunderground v.1.15,2013-10-27 14:53:00,
2013-10-27 10:58:00,48.0,36.8,30.11,East,82,2.0,4.0,65,0.00,,,0.00,Wunderground v.1.15,2013-10-27 14:58:00,
2013-10-27 11:04:00,48.6,37.0,30.11,SSE,163,1.0,3.0,64,0.00,,,0.00,Wunderground v.1.15,2013-10-27 15:04:00,
2013-10-27 11:10:00,48.8,36.8,30.11,ESE,121,1.0,1.0,63,0.00,,,0.00,Wunderground v.1.15,2013-10-27 15:10:00,
2013-10-27 11:16:00,49.1,36.2,30.11,SSE,152,1.0,3.0,61,0.00,,,0.00,Wunderground v.1.15,2013-10-27 15:16:00,
2013-10-27 11:21:00,49.2,35.0,30.11,South,178,1.0,1.0,58,0.00,,,0.00,Wunderground v.1.15,2013-10-27 15:21:00,
2013-10-27 11:27:00,49.5,34.9,30.12,NNE,16,1.0,4.0,57,0.00,,,0.00,Wunderground v.1.15,2013-10-27 15:27:00,
2013-10-27 11:32:00,49.3,35.1,30.12,SSE,154,2.0,2.0,58,0.00,,,0.00,Wunderground v.1.15,2013-10-27 15:32:00,
2013-10-27 11:38:00,49.3,36.0,30.11,East,92,2.0,3.0,60,0.00,,,0.00,Wunderground v.1.15,2013-10-27 15:38:00,
2013-10-27 11:44:00,50.0,36.2,30.11,SSE,157,1.0,2.0,59,0.00,,,0.00,Wunderground v.1.15,2013-10-27 15:44:00,
2013-10-27 11:50:00,50.7,35.6,30.11,ENE,72,1.0,1.0,56,0.00,,,0.00,Wunderground v.1.15,2013-10-27 15:50:00,
2013-10-27 11:56:00,50.8,34.3,30.12,East,95,1.0,3.0,53,0.00,,,0.00,Wunderground v.1.15,2013-10-27 15:56:00,
2013-10-27 12:02:00,50.4,34.4,30.12,NE,55,1.0,2.0,54,0.00,,,0.00,Wunderground v.1.15,2013-10-27 16:02:00,
2013-10-27 12:08:00,50.2,34.2,30.11,ENE,65,1.0,2.0,54,0.00,,,0.00,Wunderground v.1.15,2013-10-27 16:08:00,
2013-10-27 12:14:00,50.1,34.5,30.11,ENE,75,1.0,3.0,55,0.00,,,0.00,Wunderground v.1.15,2013-10-27 16:14:00,
2013-10-27 12:20:00,50.0,33.5,30.11,East,98,2.0,2.0,53,0.00,,,0.00,Wunderground v.1.15,2013-10-27 16:20:00,
2013-10-27 12:25:00,49.9,33.4,30.11,SE,128,1.0,3.0,53,0.00,,,0.00,Wunderground v.1.15,2013-10-27 16:25:00,
2013-10-27 12:31:00,49.9,33.4,30.11,East,93,1.0,3.0,53,0.00,,,0.00,Wunderground v.1.15,2013-10-27 16:31:00,
2013-10-27 12:36:00,49.8,33.3,30.11,East,93,1.0,3.0,53,0.00,,,0.00,Wunderground v.1.15,2013-10-27 16:36:00,
2013-10-27 12:42:00,49.9,33.4,30.11,SSE,153,1.0,1.0,53,0.00,,,0.00,Wunderground v.1.15,2013-10-27 16:42:00,
2013-10-27 12:47:00,50.1,34.1,30.11,South,170,1.0,2.0,54,0.00,,,0.00,Wunderground v.1.15,2013-10-27 16:47:00,
2013-10-27 12:52:00,50.2,32.8,30.11,SE,131,1.0,2.0,51,0.00,,,0.00,Wunderground v.1.15,2013-10-27 16:52:00,
2013-10-27 12:58:00,50.0,32.6,30.11,ENE,64,2.0,4.0,51,0.00,,,0.00,Wunderground v.1.15,2013-10-27 16:58:00,
2013-10-27 13:03:00,50.0,33.1,30.11,NE,51,1.0,2.0,52,0.00,,,0.00,Wunderground v.1.15,2013-10-27 17:03:00,
2013-10-27 13:08:00,50.0,32.6,30.11,SSE,149,1.0,4.0,51,0.00,,,0.00,Wunderground v.1.15,2013-10-27 17:08:00,
2013-10-27 13:14:00,50.1,33.6,30.10,ESE,122,1.0,1.0,53,0.00,,,0.00,Wunderground v.1.15,2013-10-27 17:14:00,
2013-10-27 13:20:00,50.4,33.9,30.10,East,97,1.0,3.0,53,0.00,,,0.00,Wunderground v.1.15,2013-10-27 17:20:00,
2013-10-27 13:26:00,50.8,34.3,30.10,ESE,112,1.0,3.0,53,0.00,,,0.00,Wunderground v.1.15,2013-10-27 17:26:00,
2013-10-27 13:31:00,51.0,33.5,30.10,ENE,78,1.0,1.0,51,0.00,,,0.00,Wunderground v.1.15,2013-10-27 17:31:00,
2013-10-27 13:36:00,50.5,32.5,30.10,NNE,33,2.0,4.0,50,0.00,,,0.00,Wunderground v.1.15,2013-10-27 17:36:00,
2013-10-27 13:42:00,50.1,33.1,30.10,East,94,2.0,3.0,52,0.00,,,0.00,Wunderground v.1.15,2013-10-27 17:42:00,
2013-10-27 13:48:00,50.4,33.4,30.09,ESE,110,1.0,3.0,52,0.00,,,0.00,Wunderground v.1.15,2013-10-27 17:48:00,
2013-10-27 13:54:00,51.1,33.6,30.09,South,176,1.0,6.0,51,0.00,,,0.00,Wunderground v.1.15,2013-10-27 17:54:00,
2013-10-27 13:59:00,51.0,33.0,30.09,ESE,103,2.0,6.0,50,0.00,,,0.00,Wunderground v.1.15,2013-10-27 17:59:00,
2013-10-27 14:04:00,51.0,33.5,30.09,SE,130,1.0,3.0,51,0.00,,,0.00,Wunderground v.1.15,2013-10-27 18:04:00,
2013-10-27 14:10:00,51.0,33.0,30.09,SSE,149,1.0,1.0,50,0.00,,,0.00,Wunderground v.1.15,2013-10-27 18:10:00,
2013-10-27 14:16:00,50.6,33.6,30.08,SE,142,1.0,3.0,52,0.00,,,0.00,Wunderground v.1.15,2013-10-27 18:16:00,
2013-10-27 14:21:00,50.5,32.5,30.09,ESE,117,1.0,3.0,50,0.00,,,0.00,Wunderground v.1.15,2013-10-27 18:21:00,
2013-10-27 14:27:00,50.5,32.5,30.08,South,173,1.0,3.0,50,0.00,,,0.00,Wunderground v.1.15,2013-10-27 18:27:00,
2013-10-27 14:33:00,51.2,34.2,30.08,NE,41,1.0,5.0,52,0.00,,,0.00,Wunderground v.1.15,2013-10-27 18:33:00,
2013-10-27 14:38:00,51.6,34.0,30.08,East,91,1.0,5.0,51,0.00,,,0.00,Wunderground v.1.15,2013-10-27 18:38:00,
2013-10-27 14:43:00,51.9,34.8,30.09,NE,42,1.0,2.0,52,0.00,,,0.00,Wunderground v.1.15,2013-10-27 18:43:00,
2013-10-27 14:48:00,52.3,34.7,30.09,NNE,24,1.0,2.0,51,0.00,,,0.00,Wunderground v.1.15,2013-10-27 18:48:00,
2013-10-27 14:54:00,52.3,33.7,30.09,North,11,1.0,3.0,49,0.00,,,0.00,Wunderground v.1.15,2013-10-27 18:54:00,
2013-10-27 14:59:00,52.2,33.6,30.09,SSE,155,1.0,3.0,49,0.00,,,0.00,Wunderground v.1.15,2013-10-27 18:59:00,
2013-10-27 15:05:00,52.4,34.3,30.08,ESE,107,1.0,2.0,50,0.00,,,0.00,Wunderground v.1.15,2013-10-27 19:05:00,
2013-10-27 15:10:00,52.5,33.4,30.09,ENE,65,1.0,1.0,48,0.00,,,0.00,Wunderground v.1.15,2013-10-27 19:10:00,
2013-10-27 15:15:00,52.3,34.2,30.09,NE,53,1.0,2.0,50,0.00,,,0.00,Wunderground v.1.15,2013-10-27 19:15:00,
2013-10-27 15:20:00,52.2,33.6,30.08,ESE,117,1.0,1.0,49,0.00,,,0.00,Wunderground v.1.15,2013-10-27 19:20:00,
2013-10-27 15:25:00,52.0,33.9,30.08,ESE,106,0.0,2.0,50,0.00,,,0.00,Wunderground v.1.15,2013-10-27 19:25:00,
2013-10-27 15:31:00,51.9,33.8,30.08,SSE,166,1.0,4.0,50,0.00,,,0.00,Wunderground v.1.15,2013-10-27 19:31:00,
2013-10-27 15:36:00,51.8,34.2,30.08,ESE,117,1.0,4.0,51,0.00,,,0.00,Wunderground v.1.15,2013-10-27 19:36:00,
2013-10-27 15:41:00,51.5,33.0,30.08,SW,230,1.0,1.0,49,0.00,,,0.00,Wunderground v.1.15,2013-10-27 19:41:00,
2013-10-27 15:47:00,51.4,32.9,30.08,SSE,163,1.0,4.0,49,0.00,,,0.00,Wunderground v.1.15,2013-10-27 19:47:00,
2013-10-27 15:52:00,51.3,33.8,30.09,NE,43,0.0,1.0,51,0.00,,,0.00,Wunderground v.1.15,2013-10-27 19:52:00,
2013-10-27 15:57:00,51.1,32.6,30.08,SE,126,1.0,3.0,49,0.00,,,0.00,Wunderground v.1.15,2013-10-27 19:57:00,
2013-10-27 16:03:00,50.9,33.9,30.08,SE,126,1.0,1.0,52,0.00,,,0.00,Wunderground v.1.15,2013-10-27 20:03:00,
2013-10-27 16:08:00,50.6,33.6,30.08,East,95,0.0,3.0,52,0.00,,,0.00,Wunderground v.1.15,2013-10-27 20:08:00,
2013-10-27 16:14:00,50.3,34.3,30.08,East,95,0.0,0.0,54,0.00,,,0.00,Wunderground v.1.15,2013-10-27 20:14:00,
2013-10-27 16:20:00,50.0,33.5,30.08,SE,128,0.0,0.0,53,0.00,,,0.00,Wunderground v.1.15,2013-10-27 20:20:00,
2013-10-27 16:25:00,49.9,33.9,30.08,SE,127,0.0,2.0,54,0.00,,,0.00,Wunderground v.1.15,2013-10-27 20:25:00,
2013-10-27 16:31:00,49.9,33.4,30.08,East,93,0.0,0.0,53,0.00,,,0.00,Wunderground v.1.15,2013-10-27 20:31:00,
2013-10-27 16:37:00,49.7,32.8,30.08,SW,233,0.0,1.0,52,0.00,,,0.00,Wunderground v.1.15,2013-10-27 20:37:00,
2013-10-27 16:43:00,49.7,33.7,30.08,ENE,69,0.0,1.0,54,0.00,,,0.00,Wunderground v.1.15,2013-10-27 20:43:00,
2013-10-27 16:49:00,49.7,33.2,30.08,East,101,1.0,1.0,53,0.00,,,0.00,Wunderground v.1.15,2013-10-27 20:49:00,
2013-10-27 16:54:00,49.5,33.1,30.08,SE,130,0.0,3.0,53,0.00,,,0.00,Wunderground v.1.15,2013-10-27 20:54:00,
2013-10-27 17:00:00,49.4,36.1,30.08,ESE,112,0.0,0.0,60,0.00,,,0.00,Wunderground v.1.15,2013-10-27 21:00:00,
2013-10-27 17:06:00,49.0,36.1,30.08,ESE,112,0.0,0.0,61,0.00,,,0.00,Wunderground v.1.15,2013-10-27 21:06:00,
2013-10-27 17:11:00,48.5,35.7,30.08,ESE,112,0.0,0.0,61,0.00,,,0.00,Wunderground v.1.15,2013-10-27 21:11:00,
2013-10-27 17:16:00,48.3,34.6,30.08,SSE,149,0.0,1.0,59,0.00,,,0.00,Wunderground v.1.15,2013-10-27 21:16:00,
2013-10-27 17:22:00,47.9,36.3,30.08,SSE,149,0.0,0.0,64,0.00,,,0.00,Wunderground v.1.15,2013-10-27 21:22:00,
2013-10-27 17:27:00,47.6,34.8,30.08,SSE,149,0.0,0.0,61,0.00,,,0.00,Wunderground v.1.15,2013-10-27 21:27:00,
2013-10-27 17:33:00,47.5,35.5,30.08,SSE,149,0.0,0.0,63,0.00,,,0.00,Wunderground v.1.15,2013-10-27 21:33:00,
2013-10-27 17:38:00,47.4,34.6,30.08,SSE,148,0.0,0.0,61,0.00,,,0.00,Wunderground v.1.15,2013-10-27 21:38:00,
2013-10-27 17:44:00,47.3,36.9,30.08,SSE,148,0.0,0.0,67,0.00,,,0.00,Wunderground v.1.15,2013-10-27 21:44:00,
2013-10-27 17:50:00,47.0,35.4,30.08,SSE,148,0.0,0.0,64,0.00,,,0.00,Wunderground v.1.15,2013-10-27 21:50:00,
2013-10-27 17:56:00,46.7,36.7,30.08,SSE,148,0.0,0.0,68,0.00,,,0.00,Wunderground v.1.15,2013-10-27 21:56:00,
2013-10-27 18:02:00,46.2,35.1,30.08,SSE,148,0.0,0.0,65,0.00,,,0.00,Wunderground v.1.15,2013-10-27 22:02:00,
2013-10-27 18:07:00,45.9,35.9,30.08,SSE,148,0.0,0.0,68,0.00,,,0.00,Wunderground v.1.15,2013-10-27 22:07:00,
2013-10-27 18:13:00,45.5,37.0,30.09,SSE,148,0.0,0.0,72,0.00,,,0.00,Wunderground v.1.15,2013-10-27 22:13:00,
2013-10-27 18:19:00,45.0,36.9,30.09,SSE,148,0.0,0.0,73,0.00,,,0.00,Wunderground v.1.15,2013-10-27 22:19:00,
2013-10-27 18:25:00,44.6,36.5,30.09,SSE,148,0.0,0.0,73,0.00,,,0.00,Wunderground v.1.15,2013-10-27 22:25:00,
2013-10-27 18:31:00,44.1,36.0,30.09,SSE,148,0.0,0.0,73,0.00,,,0.00,Wunderground v.1.15,2013-10-27 22:31:00,
2013-10-27 18:37:00,43.6,35.9,30.09,SSE,148,0.0,0.0,74,0.00,,,0.00,Wunderground v.1.15,2013-10-27 22:37:00,
2013-10-27 18:43:00,43.1,35.7,30.09,SSE,148,0.0,0.0,75,0.00,,,0.00,Wunderground v.1.15,2013-10-27 22:43:00,
2013-10-27 18:49:00,42.7,35.7,30.09,SSE,148,0.0,0.0,76,0.00,,,0.00,Wunderground v.1.15,2013-10-27 22:49:00,
2013-10-27 18:54:00,42.3,35.6,30.09,SSE,148,0.0,0.0,77,0.00,,,0.00,Wunderground v.1.15,2013-10-27 22:54:00,
2013-10-27 19:00:00,41.8,35.8,30.10,SSE,148,0.0,0.0,79,0.00,,,0.00,Wunderground v.1.15,2013-10-27 23:00:00,
2013-10-27 19:06:00,41.5,35.2,30.10,SSE,148,0.0,0.0,78,0.00,,,0.00,Wunderground v.1.15,2013-10-27 23:06:00,
2013-10-27 19:12:00,41.2,35.2,30.10,SSE,148,0.0,0.0,79,0.00,,,0.00,Wunderground v.1.15,2013-10-27 23:12:00,
2013-10-27 19:17:00,40.9,34.9,30.10,SSE,148,0.0,0.0,79,0.00,,,0.00,Wunderground v.1.15,2013-10-27 23:17:00,
2013-10-27 19:22:00,40.6,35.2,30.10,SSE,148,0.0,0.0,81,0.00,,,0.00,Wunderground v.1.15,2013-10-27 23:22:00,
2013-10-27 19:28:00,40.3,34.6,30.10,SSE,148,0.0,0.0,80,0.00,,,0.00,Wunderground v.1.15,2013-10-27 23:28:00,
2013-10-27 19:33:00,40.0,34.3,30.10,SSE,148,0.0,0.0,80,0.00,,,0.00,Wunderground v.1.15,2013-10-27 23:33:00,
2013-10-27 19:39:00,39.8,34.4,30.10,SSE,148,0.0,0.0,81,0.00,,,0.00,Wunderground v.1.15,2013-10-27 23:39:00,
2013-10-27 19:44:00,39.6,34.6,30.10,SSE,148,0.0,0.0,82,0.00,,,0.00,Wunderground v.1.15,2013-10-27 23:44:00,
2013-10-27 19:50:00,39.3,34.6,30.10,SSE,148,0.0,0.0,83,0.00,,,0.00,Wunderground v.1.15,2013-10-27 23:50:00,
2013-10-27 19:55:00,39.0,34.3,30.11,SSE,148,0.0,0.0,83,0.00,,,0.00,Wunderground v.1.15,2013-10-27 23:55:00,
2013-10-27 20:00:00,38.8,34.1,30.11,SSE,148,0.0,0.0,83,0.00,,,0.00,Wunderground v.1.15,2013-10-28 00:00:00,
2013-10-27 20:06:00,38.6,34.2,30.11,SSE,148,0.0,0.0,84,0.00,,,0.00,Wunderground v.1.15,2013-10-28 00:06:00,
2013-10-27 20:12:00,38.4,34.3,30.11,SSE,148,0.0,0.0,85,0.00,,,0.00,Wunderground v.1.15,2013-10-28 00:12:00,
2013-10-27 20:18:00,38.2,33.8,30.11,SSE,148,0.0,0.0,84,0.00,,,0.00,Wunderground v.1.15,2013-10-28 00:18:00,
2013-10-27 20:23:00,38.0,33.6,30.11,SSE,148,0.0,0.0,84,0.00,,,0.00,Wunderground v.1.15,2013-10-28 00:23:00,
2013-10-27 20:28:00,37.8,33.7,30.11,SSE,148,0.0,0.0,85,0.00,,,0.00,Wunderground v.1.15,2013-10-28 00:28:00,
2013-10-27 20:33:00,37.6,33.8,30.11,SSE,148,0.0,0.0,86,0.00,,,0.00,Wunderground v.1.15,2013-10-28 00:33:00,
2013-10-27 20:39:00,37.4,33.9,30.11,SSE,148,0.0,0.0,87,0.00,,,0.00,Wunderground v.1.15,2013-10-28 00:39:00,
2013-10-27 20:44:00,37.3,33.8,30.11,SSE,148,0.0,0.0,87,0.00,,,0.00,Wunderground v.1.15,2013-10-28 00:44:00,
2013-10-27 20:49:00,37.2,33.7,30.11,SSE,148,0.0,0.0,87,0.00,,,0.00,Wunderground v.1.15,2013-10-28 00:49:00,
2013-10-27 20:55:00,37.0,33.5,30.12,SSE,148,0.0,0.0,87,0.00,,,0.00,Wunderground v.1.15,2013-10-28 00:55:00,
2013-10-27 21:01:00,36.7,33.2,30.11,SSE,148,0.0,0.0,87,0.00,,,0.00,Wunderground v.1.15,2013-10-28 01:01:00,
2013-10-27 21:07:00,36.5,33.3,30.12,SSE,148,0.0,0.0,88,0.00,,,0.00,Wunderground v.1.15,2013-10-28 01:07:00,
2013-10-27 21:12:00,36.4,33.2,30.12,SSE,148,0.0,0.0,88,0.00,,,0.00,Wunderground v.1.15,2013-10-28 01:12:00,
2013-10-27 21:18:00,36.2,33.0,30.12,SSE,148,0.0,0.0,88,0.00,,,0.00,Wunderground v.1.15,2013-10-28 01:18:00,
2013-10-27 21:24:00,36.0,32.8,30.12,SSE,148,0.0,0.0,88,0.00,,,0.00,Wunderground v.1.15,2013-10-28 01:24:00,
2013-10-27 21:29:00,35.9,33.0,30.12,SSE,148,0.0,0.0,89,0.00,,,0.00,Wunderground v.1.15,2013-10-28 01:29:00,
2013-10-27 21:35:00,35.7,32.5,30.12,SSE,148,0.0,0.0,88,0.00,,,0.00,Wunderground v.1.15,2013-10-28 01:35:00,
2013-10-27 21:40:00,35.5,32.6,30.12,SSE,148,0.0,0.0,89,0.00,,,0.00,Wunderground v.1.15,2013-10-28 01:40:00,
2013-10-27 21:45:00,35.4,32.5,30.12,SSE,148,0.0,0.0,89,0.00,,,0.00,Wunderground v.1.15,2013-10-28 01:45:00,
2013-10-27 21:51:00,35.3,32.7,30.12,SSE,148,0.0,0.0,90,0.00,,,0.00,Wunderground v.1.15,2013-10-28 01:51:00,
2013-10-27 21:56:00,35.1,32.2,30.13,SSE,148,0.0,0.0,89,0.00,,,0.00,Wunderground v.1.15,2013-10-28 01:56:00,
2013-10-27 22:01:00,35.0,32.4,30.13,SSE,148,0.0,0.0,90,0.00,,,0.00,Wunderground v.1.15,2013-10-28 02:01:00,
2013-10-27 22:07:00,34.9,32.3,30.13,SSE,148,0.0,0.0,90,0.00,,,0.00,Wunderground v.1.15,2013-10-28 02:07:00,
2013-10-27 22:13:00,34.8,32.2,30.13,SSE,148,0.0,0.0,90,0.00,,,0.00,Wunderground v.1.15,2013-10-28 02:13:00,
2013-10-27 22:18:00,34.7,32.1,30.13,SSE,148,0.0,0.0,90,0.00,,,0.00,Wunderground v.1.15,2013-10-28 02:18:00,
2013-10-27 22:24:00,34.5,31.9,30.13,SSE,148,0.0,0.0,90,0.00,,,0.00,Wunderground v.1.15,2013-10-28 02:24:00,
2013-10-27 22:30:00,34.4,32.0,30.13,SSE,148,0.0,0.0,91,0.00,,,0.00,Wunderground v.1.15,2013-10-28 02:30:00,
2013-10-27 22:35:00,34.3,31.9,30.14,SSE,148,0.0,0.0,91,0.00,,,0.00,Wunderground v.1.15,2013-10-28 02:35:00,
2013-10-27 22:40:00,34.2,31.8,30.14,SSE,148,0.0,0.0,91,0.00,,,0.00,Wunderground v.1.15,2013-10-28 02:40:00,
2013-10-27 22:45:00,34.1,31.7,30.14,SSE,148,0.0,0.0,91,0.00,,,0.00,Wunderground v.1.15,2013-10-28 02:45:00,
2013-10-27 22:51:00,34.0,31.6,30.14,SSE,148,0.0,0.0,91,0.00,,,0.00,Wunderground v.1.15,2013-10-28 02:51:00,
2013-10-27 22:57:00,34.0,31.9,30.14,SSE,148,0.0,0.0,92,0.00,,,0.00,Wunderground v.1.15,2013-10-28 02:57:00,
2013-10-27 23:03:00,33.8,31.5,30.14,SSE,148,0.0,0.0,91,0.00,,,0.00,Wunderground v.1.15,2013-10-28 03:03:00,
2013-10-27 23:08:00,33.7,31.6,30.14,SSE,148,0.0,0.0,92,0.00,,,0.00,Wunderground v.1.15,2013-10-28 03:08:00,
2013-10-27 23:14:00,33.5,31.4,30.14,SSE,148,0.0,0.0,92,0.00,,,0.00,Wunderground v.1.15,2013-10-28 03:14:00,
2013-10-27 23:19:00,33.4,31.1,30.14,SSE,148,0.0,0.0,91,0.00,,,0.00,Wunderground v.1.15,2013-10-28 03:19:00,
2013-10-27 23:24:00,33.3,31.2,30.14,SSE,148,0.0,0.0,92,0.00,,,0.00,Wunderground v.1.15,2013-10-28 03:24:00,
2013-10-27 23:30:00,33.2,31.1,30.14,SSE,148,0.0,0.0,92,0.00,,,0.00,Wunderground v.1.15,2013-10-28 03:30:00,
2013-10-27 23:36:00,33.2,31.4,30.14,SSE,148,0.0,0.0,93,0.00,,,0.00,Wunderground v.1.15,2013-10-28 03:36:00,
2013-10-27 23:41:00,33.1,31.3,30.14,SSE,148,0.0,0.0,93,0.00,,,0.00,Wunderground v.1.15,2013-10-28 03:41:00,
2013-10-27 23:47:00,33.0,30.9,30.14,SSE,148,0.0,0.0,92,0.00,,,0.00,Wunderground v.1.15,2013-10-28 03:47:00,
2013-10-27 23:53:00,32.8,30.7,30.13,SSE,148,0.0,0.0,92,0.00,,,0.00,Wunderground v.1.15,2013-10-28 03:53:00,
2013-10-27 23:58:00,32.7,30.6,30.13,SSE,148,0.0,0.0,92,0.00,,,0.00,Wunderground v.1.15,2013-10-28 03:58:00,